K5AGY Weather Reports


Display with metric or nautical units.
time (UTC)temp
F
wind
direction
speed
MPH
gust
MPH
rain 1hr
in
rain 24hr
in
rain mn
in
humidity
%
barometer
mb
20260902043021 80 127 0.0 1.0 0.00 0.00 0.00 72 1014.0
20260902041601 81 134 0.0 1.0 0.00 0.00 0.00 71 1014.0
20260902040027 81 142 0.0 0.0 0.00 0.00 0.00 70 1013.9
20260902034605 81 153 0.0 1.0 0.00 0.00 0.00 69 1013.7
20260902033033 82 119 0.0 2.0 0.00 0.00 0.00 69 1013.4
20260902031501 82 106 1.0 4.0 0.00 0.00 0.00 68 1013.4
20260902030036 83 155 0.0 3.0 0.00 0.00 0.00 67 1013.2
20260902024510 84 113 1.0 4.0 0.00 0.00 0.00 66 1013.0
20260902023042 84 117 0.0 2.0 0.00 0.00 0.00 65 1012.6
20260902021515 85 160 2.0 8.0 0.00 0.00 0.00 63 1012.3
20260902020053 86 109 3.0 11.0 0.00 0.00 0.00 62 1012.2
20260902014518 87 148 4.0 9.0 0.00 0.00 0.00 60 1012.3
20260902013053 89 175 4.0 13.0 0.00 0.00 0.00 56 1012.1
20260902011520 90 101 4.0 9.0 0.00 0.00 0.00 52 1011.9
20260902010052 91 79 1.0 4.0 0.00 0.00 0.00 52 1011.6
20260902004525 91 59 3.0 7.0 0.00 0.00 0.00 51 1011.5
20260902003059 90 64 3.0 7.0 0.00 0.00 0.00 53 1011.5
20260902001531 88 65 0.0 2.0 0.00 0.00 0.00 60 1011.6
20260902000006 86 62 2.0 4.0 0.00 0.00 0.00 63 1011.8
20260901234534 85 8 1.0 2.0 0.00 0.00 0.00 67 1011.5
20260901233002 84 322 2.0 5.0 0.00 0.00 0.00 68 1011.4
20260901231542 85 309 4.0 13.0 0.00 0.00 0.00 64 1011.4
20260901230009 91 345 9.0 15.0 0.00 0.00 0.00 47 1011.1
20260901224539 97 42 2.0 7.0 0.00 0.00 0.00 38 1011.0
20260901223010 98 98 5.0 13.0 0.00 0.00 0.00 37 1011.1
20260901221544 101 58 3.0 9.0 0.00 0.00 0.00 32 1011.0
20260901220015 100 68 0.0 5.0 0.00 0.00 0.00 33 1011.2
20260901214541 100 97 3.0 9.0 0.00 0.00 0.00 34 1011.2
20260901213010 100 51 4.0 9.0 0.00 0.00 0.00 34 1011.2
20260901211542 100 101 5.0 10.0 0.00 0.00 0.00 35 1011.3
20260901210023 103 62 1.0 7.0 0.00 0.00 0.00 29 1011.4
20260901204544 102 201 2.0 5.0 0.00 0.00 0.00 31 1011.8
20260901203021 102 353 2.0 6.0 0.00 0.00 0.00 31 1012.0
20260901201547 101 103 4.0 10.0 0.00 0.00 0.00 33 1012.3
20260901200012 100 117 2.0 7.0 0.00 0.00 0.00 35 1012.6
20260901194547 99 27 3.0 5.0 0.00 0.00 0.00 35 1012.7
20260901193016 99 109 4.0 9.0 0.00 0.00 0.00 36 1012.9
20260901191544 99 95 1.0 8.0 0.00 0.00 0.00 37 1013.2
20260901190030 99 123 2.0 9.0 0.00 0.00 0.00 35 1013.3
20260901184546 101 295 4.0 9.0 0.00 0.00 0.00 35 1013.6
20260901183025 100 282 0.0 4.0 0.00 0.00 0.00 38 1013.9
20260901181546 99 317 0.0 8.0 0.00 0.00 0.00 39 1014.1
20260901180014 97 225 3.0 8.0 0.00 0.00 0.00 42 1014.5
20260901174601 97 219 3.0 7.0 0.00 0.00 0.00 42 1014.9
20260901173018 97 25 1.0 3.0 0.00 0.00 0.00 42 1015.2
20260901171553 95 114 1.0 5.0 0.00 0.00 0.00 46 1015.3
20260901170018 93 34 0.0 5.0 0.00 0.00 0.00 48 1015.5
20260901164551 92 57 0.0 3.0 0.00 0.00 0.00 51 1015.6
20260901163026 91 181 1.0 4.0 0.00 0.00 0.00 52 1015.7
20260901161608 92 318 1.0 4.0 0.00 0.00 0.00 53 1015.8
20260901160023 91 289 2.0 5.0 0.00 0.00 0.00 53 1015.8
20260901154553 90 257 2.0 5.0 0.00 0.00 0.00 56 1015.7
20260901153031 89 289 1.0 5.0 0.00 0.00 0.00 61 1015.8
20260901151557 88 296 0.0 3.0 0.00 0.00 0.00 64 1015.8
20260901150032 88 263 1.0 5.0 0.00 0.00 0.00 65 1015.9
20260901144559 86 290 1.0 5.0 0.00 0.00 0.00 70 1016.0
20260901143025 85 353 2.0 4.0 0.00 0.00 0.00 73 1015.9
20260901141608 83 16 1.0 4.0 0.00 0.00 0.00 77 1015.8
20260901140027 81 18 2.0 4.0 0.00 0.00 0.00 80 1015.8
20260901134558 79 338 1.0 4.0 0.00 0.00 0.00 82 1015.8
20260901133042 78 356 1.0 4.0 0.00 0.00 0.00 85 1015.8
20260901131506 76 352 0.0 2.0 0.00 0.00 0.00 86 1015.7
20260901130034 75 25 1.0 2.0 0.00 0.00 0.00 85 1015.6
20260901124502 74 144 0.0 2.0 0.00 0.00 0.00 85 1015.4
20260901123035 74 167 0.0 0.0 0.00 0.00 0.00 85 1015.2
20260901121504 74 167 0.0 0.0 0.00 0.00 0.00 85 1015.0
20260901120044 73 167 0.0 0.0 0.00 0.00 0.00 85 1015.1
20260901114509 74 167 0.0 0.0 0.00 0.00 0.00 84 1015.0
20260901113050 74 167 0.0 0.0 0.00 0.00 0.00 85 1014.9
20260901111508 74 167 0.0 0.0 0.00 0.00 0.00 85 1014.8
20260901110039 74 167 0.0 0.0 0.00 0.00 0.00 84 1014.8
20260901104522 74 167 0.0 0.0 0.00 0.00 0.00 84 1014.7
20260901103044 74 167 0.0 0.0 0.00 0.00 0.00 84 1014.7
20260901101519 75 167 0.0 0.0 0.00 0.00 0.00 84 1014.6
20260901100045 75 167 0.0 0.0 0.00 0.00 0.00 83 1014.7
20260901094515 75 167 0.0 0.0 0.00 0.00 0.00 84 1014.6
20260901093051 76 167 0.0 0.0 0.00 0.00 0.00 84 1014.7
20260901091520 75 165 0.0 0.0 0.00 0.00 0.00 83 1014.9
20260901090050 75 165 0.0 0.0 0.00 0.00 0.00 83 1015.0
20260901084523 76 165 0.0 0.0 0.00 0.00 0.00 82 1015.1
20260901083053 76 165 0.0 0.0 0.00 0.00 0.00 82 1015.2
20260901081523 76 165 0.0 0.0 0.00 0.00 0.00 82 1015.1
20260901080055 76 165 0.0 0.0 0.00 0.00 0.00 81 1015.0
20260901074526 77 165 0.0 0.0 0.00 0.00 0.00 81 1014.8
20260901073056 77 165 0.0 0.0 0.00 0.00 0.00 80 1014.9
20260901071525 78 165 0.0 1.0 0.00 0.00 0.00 80 1014.9
20260901070159 78 141 0.0 1.0 0.00 0.00 0.00 80 1014.9
20260901064532 78 134 0.0 1.0 0.00 0.00 0.00 79 1015.0
20260901063001 79 134 0.0 1.0 0.00 0.00 0.00 78 1014.9
20260901061532 79 134 0.0 1.0 0.00 0.00 0.00 78 1014.7
20260901060002 80 123 0.0 2.0 0.00 0.00 0.00 77 1014.6
20260901054534 80 141 0.0 1.0 0.00 0.00 0.00 76 1014.8
20260901053001 81 129 0.0 2.0 0.00 0.00 0.00 75 1014.7
20260901051533 81 122 0.0 6.0 0.00 0.00 0.00 75 1014.6
20260901050001 82 108 0.0 3.0 0.00 0.00 0.00 74 1014.5
20260901044535 82 128 2.0 5.0 0.00 0.00 0.00 73 1014.6